Regional Weather Roundup
Issued by NWS Albany, NY

Home | Current Version | Previous Version | Text Only | Print | Product List | Glossary On
Versions: 1 2 3 4 5 6 7 8 9 10 11 12 13 14 15 16 17 18 19 20 21 22 23 24 25 26 27 28 29 30 31 32 33 34 35 36 37 38 39 40 41 42 43 44 45 46 47 48 49 50
000
ASUS41 KALY 290510
RWRALY

NEW YORK STATE HOURLY WEATHER ROUNDUP
NATIONAL WEATHER SERVICE ALBANY NY
100 AM EDT SUN MAR 29 2015

NOTE: "FAIR" INDICATES FEW OR NO CLOUDS BELOW 12,000 FEET WITH NO
SIGNIFICANT WEATHER AND/OR NO OBSTRUCTIONS TO VISIBILITY.

NYZ032-033-038>043-046>054-057>066-NYZ062>081-290600-
EAST


CITY           SKY/WX    TMP DP  RH WIND       PRES   REMARKS
ALBANY         PTCLDY    22   5  48 NW9       30.16R WCI  12
GLENS FALLS    CLEAR     22   3  44 NW8       30.14S WCI  12
POUGHKEEPSIE   CLOUDY    27   9  46 N9        30.13R WCI  18
NEWBURGH       CLOUDY    25   9  50 N12       30.13R WCI  14
MONTGOMERY     CLOUDY    25   5  42 NW9       30.12R WCI  15
WHITE PLAINS   LGT SNOW  25  19  78 NW9       30.09R HAZE    WCI  15
ISLIP          LGT SNOW  26  21  81 NW16      30.07S WCI  14
NEW YORK CITY  MOCLDY    28  18  66 NW17      30.13R WCI  16
CENTRAL PARK   CLOUDY    26  15  63 VRB6G17   30.15R WCI  19
$$

NYZ005>009-017-018-044>046-055-056-290600-
CENTRAL


CITY           SKY/WX    TMP DP  RH WIND       PRES   REMARKS
FULTON         CLEAR     13   8  81 CALM      30.20R
SYRACUSE       CLEAR     18  10  71 CALM      30.20R
ROME           CLEAR     13   5  70 CALM      30.21R
ELMIRA         CLEAR     15   8  73 CALM      30.20R
BINGHAMTON     CLEAR     14   4  64 W6        30.11S WCI   5
MONTICELLO     CLEAR     18   1  49 NW9       30.10S WCI   6
$$

NYZ026>034-041>043-290600-
NORTH


CITY           SKY/WX    TMP DP  RH WIND       PRES   REMARKS
WATERTOWN      CLEAR     17   7  64 SW3       30.19R
FORT DRUM      NOT AVBL
MASSENA        CLEAR     16   3  56 SW5       30.17S WCI   9
SARANAC LAKE   CLEAR     -4  -7  87 CALM      30.05S
PLATTSBURGH    CLEAR     22   3  44 W6        30.11S WCI  14
$$

NYZ001>004-010>016-019>021-290600-
WEST


CITY           SKY/WX    TMP DP  RH WIND       PRES   REMARKS
NIAGARA FALLS  CLEAR     17  10  74 SW5       30.26R WCI  10
BUFFALO        CLEAR     19  13  77 SW6       30.25R WCI  11
DUNKIRK        CLEAR     20  12  71 W5        30.28R WCI  13
JAMESTOWN      CLEAR     16   9  73 NW6       30.20R WCI   7
WELLSVILLE     CLEAR     14   6  70 W10       30.15R WCI   1
ROCHESTER      CLEAR     22  11  62 W7        30.23R WCI  13
PENN YAN       CLEAR     22   8  55 W7        30.19R WCI  13
$$

             KEY
       WCI = WIND CHILL INDEX
       VSB = VISIBILITY
       HX  = HEAT INDEX
$$


USA.gov is the U.S. government's official web portal to all federal, state and local government web resources and services.